{"data":{"norad_id":57935,"intl_designator":"2023-148A","name":"STARLINK-30712","alt_names":[],"object_type":"PAYLOAD","status":"ACTIVE","operator":null,"country":"US","launch_date":"2023-09-25","launch_site_code":"AFWTR","launch_vehicle":null,"mission":null,"orbit_class":"UNKNOWN","rcs_meters":null,"size_class":null,"mass_kg":null,"dimensions":null,"purposes":["comms"],"wikipedia_slug":null,"has_3d_model":false,"image_url":null,"decayed_at":null,"tle_current":{"epoch":"2026-09-20T07:15:07.136352Z","epoch_age_seconds":152272,"freshness":"FRESH","line1":"1 57935U 23148A   26263.30216593  .00001303  00000+0  49706-4 0  9991","line2":"2 57935  53.1596 196.4278 0001224  93.1899 266.9244 15.34395362168273","mean_motion":15.34395362,"eccentricity":0.0001224,"inclination_deg":53.1596,"raan_deg":196.4278,"arg_perigee_deg":93.1899,"mean_anomaly_deg":266.9244,"bstar":4.9706e-5,"rev_number":16827,"period_min":93.848041753922,"perigee_km":461.87970482254,"apogee_km":463.55434588795,"semimajor_km":6840.8540253552,"source":"CELESTRAK","updated_at":"2026-09-21T09:00:33.743995Z"}}}